DW4135 Weather Reports


Display with metric or nautical units.
time (UTC)temp
F
wind
direction
speed
MPH
gust
MPH
rain 1hr
in
rain 24hr
in
rain mn
in
humidity
%
barometer
mb
20260504070235 53 122 0.0 0.0 0.00 0.00 0.00 87 1018.7
20260504060158 54 123 0.0 0.0 0.00 0.00 0.00 84 1019.4
20260504050559 56 122 0.0 0.0 0.00 0.00 0.00 82 1019.2
20260504045542 56 122 0.0 0.0 0.00 0.00 0.00 81 1019.1
20260504044538 57 122 0.0 0.0 0.00 0.00 0.00 80 1019.2
20260504044032 57 122 0.0 0.0 0.00 0.00 0.00 81 1019.2
20260504043523 57 122 0.0 0.0 0.00 0.00 0.00 81 1019.3
20260504043010 57 122 0.0 0.0 0.00 0.00 0.00 81 1019.3
20260504042004 57 122 0.0 0.0 0.00 0.00 0.00 81 1019.2
20260504041503 57 122 0.0 0.0 0.00 0.00 0.00 80 1019.1
20260504041002 57 122 0.0 0.0 0.00 0.00 0.00 80 1019.0
20260504040457 57 122 0.0 0.0 0.00 0.00 0.00 80 1018.9
20260504035951 57 122 0.0 0.0 0.00 0.00 0.00 79 1019.0
20260504035445 57 122 0.0 0.0 0.00 0.00 0.00 80 1019.0
20260504034935 57 122 0.0 0.0 0.00 0.00 0.00 79 1019.1
20260504034431 57 122 0.0 0.0 0.00 0.00 0.00 78 1019.0
20260504033932 57 122 0.0 0.0 0.00 0.00 0.00 79 1018.9
20260504032925 57 123 0.0 0.0 0.00 0.00 0.00 78 1019.0
20260504031904 58 123 0.0 0.0 0.00 0.00 0.00 76 1019.2
20260504031403 58 123 0.0 0.0 0.00 0.00 0.00 76 1019.2
20260504030401 59 122 0.0 0.0 0.00 0.00 0.00 74 1019.3
20260504025353 59 122 0.0 0.0 0.00 0.00 0.00 74 1019.2
20260504024854 60 123 0.0 0.0 0.00 0.00 0.00 73 1019.2
20260504024353 60 123 0.0 0.0 0.00 0.00 0.00 71 1019.1
20260504023852 60 123 0.0 0.0 0.00 0.00 0.00 71 1019.1
20260504023349 60 122 0.0 0.0 0.00 0.00 0.00 71 1019.0
20260504022332 60 122 0.0 0.0 0.00 0.00 0.00 72 1018.9
20260504021830 60 122 0.0 0.0 0.00 0.00 0.00 69 1018.9
20260504021330 60 122 0.0 0.0 0.00 0.00 0.00 69 1018.9
20260504020830 61 122 0.0 0.0 0.00 0.00 0.00 70 1018.7
20260504020330 61 122 0.0 0.0 0.00 0.00 0.00 69 1018.6
20260504015816 61 122 0.0 0.0 0.00 0.00 0.00 68 1018.6
20260504015305 61 122 0.0 0.0 0.00 0.00 0.00 66 1018.6
20260504014804 62 122 0.0 0.0 0.00 0.00 0.00 66 1018.6
20260504013757 62 122 0.0 0.0 0.00 0.00 0.00 66 1018.4
20260504013257 62 122 0.0 0.0 0.00 0.00 0.00 63 1018.4
20260504012747 62 122 0.0 0.0 0.00 0.00 0.00 63 1018.4
20260504012242 63 122 0.0 0.0 0.00 0.00 0.00 65 1018.3
20260504011231 63 122 0.0 0.0 0.00 0.00 0.00 62 1018.2
20260504010230 64 122 0.0 0.0 0.00 0.00 0.00 61 1018.0
20260504005724 65 122 0.0 0.0 0.00 0.00 0.00 59 1017.9
20260504005217 65 122 0.0 0.0 0.00 0.00 0.00 57 1017.9
20260504004204 66 122 0.0 0.0 0.00 0.00 0.00 57 1017.9
20260504003657 67 122 0.0 0.0 0.00 0.00 0.00 56 1018.0
20260504002637 68 122 0.0 0.0 0.00 0.00 0.00 52 1017.7
20260504002132 68 122 0.0 0.0 0.00 0.00 0.00 52 1017.7
20260504001633 69 122 0.0 0.0 0.00 0.00 0.00 51 1017.7
20260504001130 69 122 0.0 0.0 0.00 0.00 0.00 49 1017.7
20260503235625 71 122 0.0 0.0 0.00 0.00 0.00 46 1017.7
20260503234102 72 122 0.0 0.0 0.00 0.00 0.00 45 1017.7
20260503233601 72 122 0.0 1.0 0.00 0.00 0.00 45 1017.7
20260503233046 73 123 0.0 1.0 0.00 0.00 0.00 44 1017.7
20260503232541 73 122 0.0 0.0 0.00 0.00 0.00 44 1017.7
20260503232033 73 122 0.0 1.0 0.00 0.00 0.00 44 1017.7
20260503231526 73 122 0.0 1.0 0.00 0.00 0.00 44 1017.8
20260503231016 74 111 0.0 1.0 0.00 0.00 0.00 45 1017.8
20260503230505 74 110 0.0 3.0 0.00 0.00 0.00 45 1017.7
20260503225946 74 110 0.0 3.0 0.00 0.00 0.00 43 1017.7
20260503225438 74 101 0.0 1.0 0.00 0.00 0.00 45 1017.7
20260503224931 74 102 0.0 1.0 0.00 0.00 0.00 43 1017.7
20260503224427 74 102 0.0 1.0 0.00 0.00 0.00 44 1017.6
20260503223923 74 247 0.0 1.0 0.00 0.00 0.00 41 1017.6
20260503223411 75 158 0.0 1.0 0.00 0.00 0.00 44 1017.6
20260503222904 75 156 0.0 1.0 0.00 0.00 0.00 41 1017.6
20260503222405 75 221 0.0 1.0 0.00 0.00 0.00 42 1017.6
20260503221903 76 153 0.0 1.0 0.00 0.00 0.00 40 1017.6
20260503221403 76 181 0.0 1.0 0.00 0.00 0.00 40 1017.6
20260503220902 76 215 0.0 1.0 0.00 0.00 0.00 40 1017.7
20260503220403 76 93 0.0 1.0 0.00 0.00 0.00 40 1017.8
20260503215902 76 250 0.0 1.0 0.00 0.00 0.00 39 1017.8
20260503215403 76 317 0.0 1.0 0.00 0.00 0.00 41 1017.8
20260503214903 77 307 0.0 2.0 0.00 0.00 0.00 40 1017.9
20260503214403 77 79 0.0 4.0 0.00 0.00 0.00 38 1017.9
20260503213402 78 112 0.0 4.0 0.00 0.00 0.00 38 1018.1
20260503211854 79 202 0.0 2.0 0.00 0.00 0.00 37 1018.3
20260503211352 79 274 0.0 1.0 0.00 0.00 0.00 36 1018.3
20260503210844 80 259 0.0 1.0 0.00 0.00 0.00 39 1018.3
20260503210331 80 216 0.0 3.0 0.00 0.00 0.00 35 1018.4
20260503205831 79 217 0.0 3.0 0.00 0.00 0.00 36 1018.4
20260503205329 79 342 0.0 2.0 0.00 0.00 0.00 36 1018.5
20260503204805 80 266 0.0 3.0 0.00 0.00 0.00 35 1018.6
20260503204305 80 292 1.0 3.0 0.00 0.00 0.00 35 1018.6
20260503203756 80 295 1.0 6.0 0.00 0.00 0.00 37 1018.7
20260503203242 80 131 1.0 6.0 0.00 0.00 0.00 38 1018.7
20260503202739 80 22 1.0 4.0 0.00 0.00 0.00 35 1018.6
20260503202240 81 286 0.0 4.0 0.00 0.00 0.00 33 1018.8
20260503201736 81 137 0.0 1.0 0.00 0.00 0.00 36 1018.9
20260503201233 81 274 0.0 2.0 0.00 0.00 0.00 34 1018.8
20260503200731 80 139 0.0 2.0 0.00 0.00 0.00 35 1019.0
20260503200231 80 318 0.0 4.0 0.00 0.00 0.00 36 1019.0
20260503195731 80 359 1.0 4.0 0.00 0.00 0.00 36 1019.1
20260503195232 80 229 0.0 3.0 0.00 0.00 0.00 36 1019.2
20260503194724 80 98 1.0 3.0 0.00 0.00 0.00 36 1019.4
20260503194225 80 263 1.0 3.0 0.00 0.00 0.00 34 1019.5
20260503193722 80 0 1.0 3.0 0.00 0.00 0.00 36 1019.6
20260503193209 79 129 1.0 4.0 0.00 0.00 0.00 35 1019.7
20260503192710 79 248 1.0 4.0 0.00 0.00 0.00 36 1019.9
20260503192205 80 266 1.0 5.0 0.00 0.00 0.00 34 1020.0
20260503191708 79 134 1.0 5.0 0.00 0.00 0.00 34 1019.9
20260503191207 79 287 1.0 5.0 0.00 0.00 0.00 36 1020.2
20260503190708 79 81 1.0 5.0 0.00 0.00 0.00 35 1020.2
20260503190205 79 136 1.0 5.0 0.00 0.00 0.00 38 1020.4
20260503185702 78 299 1.0 5.0 0.00 0.00 0.00 36 1020.5
20260503185202 79 83 1.0 3.0 0.00 0.00 0.00 36 1020.5
20260503184701 79 150 1.0 3.0 0.00 0.00 0.00 36 1020.6
20260503184203 79 77 0.0 2.0 0.00 0.00 0.00 36 1020.7
20260503183202 78 85 1.0 4.0 0.00 0.00 0.00 36 1020.8
20260503182708 79 94 1.0 4.0 0.00 0.00 0.00 35 1020.9
20260503182202 79 285 0.0 4.0 0.00 0.00 0.00 36 1020.8
20260503181701 79 101 0.0 4.0 0.00 0.00 0.00 34 1020.8
20260503181204 79 143 1.0 4.0 0.00 0.00 0.00 37 1021.0
20260503180709 78 322 1.0 4.0 0.00 0.00 0.00 39 1020.9
20260503180202 78 287 1.0 5.0 0.00 0.00 0.00 36 1020.9
20260503175202 78 340 1.0 4.0 0.00 0.00 0.00 36 1021.0
20260503174703 78 205 0.0 3.0 0.00 0.00 0.00 39 1020.9
20260503174203 78 125 1.0 5.0 0.00 0.00 0.00 38 1021.0
20260503173704 77 349 1.0 5.0 0.00 0.00 0.00 37 1020.0
20260503173203 77 141 1.0 2.0 0.00 0.00 0.00 36 1021.0
20260503172702 76 292 1.0 4.0 0.00 0.00 0.00 37 1021.2
20260503172158 77 275 1.0 6.0 0.00 0.00 0.00 38 1021.3
20260503171151 76 252 1.0 5.0 0.00 0.00 0.00 37 1021.4
20260503170639 76 4 1.0 6.0 0.00 0.00 0.00 39 1021.4
20260503170137 76 238 1.0 6.0 0.00 0.00 0.00 38 1021.6
20260503160130 75 281 0.0 2.0 0.00 0.00 0.00 43 1022.2
20260503150105 72 101 0.0 3.0 0.00 0.00 0.00 54 1022.7
20260503131105 58 109 0.0 0.0 0.00 0.00 0.00 79 1021.4
20260503130600 57 109 0.0 0.0 0.00 0.00 0.00 81 1021.3
20260503110500 46 109 0.0 0.0 0.00 0.11 0.00 94 1020.5
20260503090333 48 108 0.0 0.0 0.00 0.24 0.00 92 1019.6
20260503080730 49 108 0.0 0.0 0.00 0.48 0.00 91 1019.3
20260503080223 49 108 0.0 0.0 0.00 0.49 0.00 91 1019.3